Terug naar catalogus

KUIPER-00590

ActiefCommunicatieLEO
NORAD 69276·PAYLOAD·🇺🇸 United States

Gelanceerd May 29, 2026 vanaf Vandenberg Space Force Base

Loading…

Volgende Passages (komende 24 uur)

TLE

VersSource: CelesTrak SupGP

Epoch: Sep 14, 2026, 22:23 UTC

1 69276C 26118K   26257.93332176  .00003677  00000+0  48147-3 0  2570
2 69276  51.9032   3.8184 0000576 123.9294 129.4148 14.79915517    13

Volg KUIPER-00590 in realtime met AllMySat

Download on the App Store